Regional Weather Roundup
Issued by NWS

Home | Current Version | Previous Version | Text Only | Print | Product List | Glossary On
Versions: 1 2 3 4 5 6 7 8 9 10 11 12 13 14 15 16 17 18 19 20 21 22 23 24 25 26 27 28 29 30 31 32 33 34 35 36 37 38 39 40 41 42 43 44 45 46 47 48 49 50
000
ASUS45 KBOU 242207
RWRCO

WEATHER ROUNDUP FOR COLORADO
NATIONAL WEATHER SERVICE DENVER/BOULDER CO
400 PM MDT SUN MAY 24 2015

NOTE: "FAIR" INDICATES FEW OR NO CLOUDS BELOW 12000 FEET WITH NO
SIGNIFICANT WEATHER AND/OR OBSTRUCTIONS TO VISIBILITY.

COZ001>005-013-030-031-242300-
...NORTHWEST COLORADO...

CITY           SKY/WX    TMP DP  RH WIND       PRES   REMARKS
CRAIG          LGT RAIN  44  40  85 W7        29.95F
HAYDEN         PTSUNNY   43  37  81 NW10      29.94S
MEEKER         LGT RAIN  45  40  82 SW6       29.96S
MOUNT WERNER   NOT AVBL
STEAMBOAT SPGS CLOUDY    43  40  89 E6        29.94S
WALDEN         PTSUNNY   50  32  50 S21       29.92R
$$

COZ006>008-011-242300-
...WEST CENTRAL VALLEYS...

CITY           SKY/WX    TMP DP  RH WIND       PRES   REMARKS
GRAND JUNCTION LGT RAIN  55  45  68 N16       29.89S
MONTROSE       LGT RAIN  52  41  66 NE5       29.94S
EAGLE          PTSUNNY   52  37  58 SW23      29.94F
RIFLE          LGT RAIN  49  41  74 NE5       29.95F
DELTA          PTSUNNY   64  39  39 MISG      29.90F
NUCLA          CLOUDY    59  36  41 CALM      29.97F
$$

COZ017>023-064>068-242300-
...SOUTHWEST COLORADO...

CITY           SKY/WX    TMP DP  RH WIND       PRES   REMARKS
DURANGO        PTSUNNY   58  37  45 SW13G24   29.95F
CORTEZ         SUNNY     59  38  45 W12G20    29.95F
PAGOSA SPRINGS PTSUNNY   51  36  55 SW9       29.99F
TELLURIDE      CLOUDY    45  33  63 W6G17     30.04F THUNDER
WOLF CREEK PAS NOT AVBL
$$

COZ009-010-012-014-032>034-037-058>063-242300-
...CENTRAL COLORADO...

CITY           SKY/WX    TMP DP  RH WIND       PRES   REMARKS
ASPEN          LGT RAIN  46  36  68 N9        29.96F
BUENA VISTA    PTSUNNY   53  26  34 E6        29.88F
COPPER MTN     CLOUDY    37  27  65 W8G18     30.05S
BERTHOUD PASS  PTSUNNY   30  21  69 MISG      30.07R THUNDER
COTTONWOOD PAS PTSUNNY   52  21  30 N6        29.96F THUNDER
GUNNISON       PTSUNNY   54  25  32 W6        29.96R
KREMMLING      CLOUDY    50  34  53 N9        29.94S
LEADVILLE      PTSUNNY   45  25  45 W16G25    29.95F
MONARCH PASS   PTSUNNY   32  27  80 W35G43    30.15S HAZE    WCI  17
SALIDA         PTSUNNY   62  29  29 W17G24    29.95F
SUNLIGHT       LGT SNOW  34  32  93 CALM      30.07S
WILKERSON PASS PTSUNNY   43  21  42 W3        30.04F
$$

COZ069>075-242300-
...SAN LUIS VALLEY/SANGRE DE CRISTO MOUNTAINS...

CITY           SKY/WX    TMP DP  RH WIND       PRES   REMARKS
ALAMOSA        CLOUDY    51  38  60 NE7       29.94F
LA VETA PASS   TSTM     N/A N/A N/A MISG      30.01F VSB 1/2
SAGUACHE       PTSUNNY   48  34  57 CALM      29.94F
$$

COZ035-036-038>040-242300-
...NORTHERN COLORADO FRONT RANGE...

CITY           SKY/WX    TMP DP  RH WIND       PRES   REMARKS
DENVER INTL AP CLOUDY    56  41  57 SE6       29.86S
DMNS CITY PARK   N/A     56  45  66 NW7       29.85S
AURORA         PTSUNNY   55  40  57 E6        29.87S
FRONT RANGE AP PTSUNNY   57  45  62 E9        29.87
ERIE MUNI ARPT CLOUDY    51  46  82 SW6       29.85F
BOULDER MUN AP CLOUDY    54  43  66 CALM      29.86F
CENTENNIAL     CLOUDY    54  41  61 SE9       29.86S
BROOMFIELD     PTSUNNY   50  45  81 NE8       29.87F
FORT COLLINS   PTSUNNY   57  41  54 SE12      29.84F
LONGMONT       PTSUNNY   56  46  68 W3        29.86F
$$

COZ041-046-047-076>085-087-088-242300-
...PIKES PEAK/PALMER DIVIDE AND SOUTHERN FOOTHILLS...

CITY           SKY/WX    TMP DP  RH WIND       PRES   REMARKS
COLO. SPRINGS  CLOUDY    52  38  58 S5        29.88S THUNDER
A. F. ACADEMY  LGT RAIN  50  41  71 SE6       29.88S
ELLICOTT       NOT AVBL
FALCON         CLOUDY    50  36  58 E6        29.90F THUNDER
FORT CARSON    MOSUNNY   51  42  72 S8G20     29.86F
LIMON          CLOUDY    59  41  51 W14G22    29.82F
MONUMENT HILL  NOT AVBL
TRINIDAD       PTSUNNY   64  40  41 SE12      29.81F
$$

COZ042>045-048>051-090-091-242300-
...NORTHEAST COLORADO...

CITY           SKY/WX    TMP DP  RH WIND       PRES   REMARKS
GREELEY ARPT   PTSUNNY   64  43  45 S12G20    29.84S
AKRON          CLOUDY    48  45  89 NW16      29.83R
BURLINGTON     MOSUNNY   68  53  58 SE21      29.77F
WRAY           MOSUNNY   69  50  50 E13       29.76F
STERLING       TSTM      55  46  71 SW32G41   29.82R
HOLYOKE        NOT AVBL
FORT MORGAN    NOT AVBL
$$

COZ086-089-092>099-242300-
...SOUTHEAST COLORADO...

CITY           SKY/WX    TMP DP  RH WIND       PRES   REMARKS
PUEBLO         LGT RAIN  53  44  71 W17       29.83R
LA JUNTA       LGT RAIN  63  48  58 NW15      29.77F
LAMAR          LGT RAIN  63  56  78 NE12      29.71F
SPRINGFIELD      N/A     67  52  58 SE18      29.75F
$$


USA.gov is the U.S. government's official web portal to all federal, state and local government web resources and services.